Regional Weather Roundup
Issued by NWS

Home | Current Version | Previous Version | Text Only | Print | Product List | Glossary On
Versions: 1 2 3 4 5 6 7 8 9 10 11 12 13 14 15 16 17 18 19 20 21 22 23 24 25 26 27 28 29 30 31 32 33 34 35 36 37 38 39 40 41 42 43 44 45 46 47 48 49 50
000
ASUS44 KBMX 260910
RWRAL

ALABAMA REGIONAL WEATHER ROUNDUP
NATIONAL WEATHER SERVICE BIRMINGHAM AL
400 AM CDT SAT JUL 26 2014

NOTE: "FAIR" INDICATES FEW OR NO CLOUDS BELOW 12,000 FEET
WITH NO SIGNIFICANT WEATHER AND/OR OBSTRUCTIONS TO VISIBILITY.

THE REMARK "TC" DENOTES TEMPERATURE IN DEGREES CELSIUS.

ALZ001>011-014-016>018-020-261000-
NORTH ALABAMA

CITY           SKY/WX    TMP DP  RH WIND       PRES   REMARKS
MUSCLE SHOALS  CLEAR     63  61  94 CALM      30.03S FOG
HUNTSVILLE     CLEAR     69  65  86 CALM      30.02S
DECATUR        CLEAR     65  64  97 MISG      30.03R FOG
HALEYVILLE     FAIR      62  62 100 CALM      30.07R FOG
GADSDEN        CLEAR     64  61  88 CALM      30.02S
$$

ALZ012-013-022-023-030>036-040>044-261000-
WEST CENTRAL ALABAMA

CITY           SKY/WX    TMP DP  RH WIND       PRES   REMARKS
TUSCALOOSA     CLEAR     67  65  93 CALM      30.02R
$$

ALZ015-024>027-033>036-040>044-261000-
CENTRAL ALABAMA

CITY           SKY/WX    TMP DP  RH WIND       PRES   REMARKS
BIRMINGHAM     CLEAR     66  61  84 CALM      30.04S
MONTGOMERY     CLEAR     74  72  93 CALM      30.00S FOG
SHELBY CO ARPT MOCLDY    70  68  93 CALM      30.02R
MAXWELL AFB    CLEAR     73  73 100 CALM      30.00S FOG
GREENVILLE     FAIR      73  70  90 CALM      30.01S
$$

ALZ019-021-028-029-037-038-045>048-261000-
EAST CENTRAL ALABAMA

CITY           SKY/WX    TMP DP  RH WIND       PRES   REMARKS
ANNISTON       CLEAR     67  65  93 CALM      30.03R FOG
ALEXANDER CITY CLEAR     71  66  84 CALM      30.03R
AUBURN         CLEAR     72  70  94 CALM      30.05S
$$

ALZ051>064-261000-
SOUTHWEST ALABAMA

CITY           SKY/WX    TMP DP  RH WIND       PRES   REMARKS
MOBILE         MOCLDY    74  74 100 W3        30.01S FOG
BROOKLEY FIELD CLEAR     74  74 100 CALM      30.02R FOG
EVERGREEN      CLEAR     73  71  93 CALM      30.01S FOG
$$

ALZ049-050-065>069-261000-
SOUTHEAST ALABAMA

CITY           SKY/WX    TMP DP  RH WIND       PRES   REMARKS
DOTHAN         CLEAR     74  73  97 SW3       30.05R
OZARK          CLEAR     73  73  97 CALM      30.01S
TROY           PTCLDY    73  71  93 CALM      30.01S FOG
EUFAULA        FAIR      73  70  90 CALM      29.99S FOG
$$



USA.gov is the U.S. government's official web portal to all federal, state and local government web resources and services.